Location: Dal�� Lhota
(48.7500°N, 14.0167°E)
Time: 22:58:16
(UTC+00:00)

BREEZE-M R/B - Pass Details

Date: 24 September 2020
Orbit: 266 x 23046 km, 49.2° (Epoch: 25 October)

Event Time Altitude Azimuth Distance (km) Brightness Sun altitude
Rises 19:01:42 0° 254° (WSW) 7,395 9.8 -20.9°
Reaches altitude 10° 19:08:50 10° 255° (WSW) 4,206 8.4 -21.9°
Maximum altitude 19:16:41 83° 171° (S) 599 3.3 -23.1°
Enters shadow 19:16:43 83° 163° (SSE) 598 3.3 -23.1°
